Location: San Antonio
(29.4240°N, 98.4930°W)
Time: 07:12:24
(UTC-05:00)

Tiros 1 - All Passes

Search period start: 20 July 2025 00:00
Search period end: 30 July 2025 00:00
Orbit: 619 x 651 km, 48.4° (Epoch: 19 July)

Date Brightness Start Highest point End Pass type
(mag) Time Alt. Az. Time Alt. Az. Time Alt. Az.
20 Jul - 00:59:13 10° NNW 01:03:00 23° NNE 01:06:45 10° E visible
20 Jul - 02:40:32 10° NW 02:45:12 61° SW 02:49:49 10° SE night (unlit)
20 Jul - 16:47:31 10° S 16:50:38 18° SE 16:53:45 10° E daylight
20 Jul - 18:27:36 10° WSW 18:32:12 59° NW 18:36:51 10° NE daylight
20 Jul - 20:12:29 10° NW 20:14:55 14° NNW 20:17:20 10° N daylight
20 Jul - 23:40:46 10° N 23:42:35 12° NNE 23:44:23 10° NE visible
21 Jul - 01:20:55 10° NW 01:25:28 45° NE 01:29:59 10° ESE visible
21 Jul - 03:03:24 10° WNW 03:07:11 24° SW 03:10:57 10° S night (unlit)
21 Jul - 17:08:08 10° SSW 17:12:33 44° SE 17:17:01 10° ENE daylight
21 Jul - 18:50:34 10° W 18:54:35 28° NNW 18:58:39 10° NNE daylight
22 Jul - 00:01:53 10° NNW 00:05:21 20° NNE 00:08:49 10° ENE visible
22 Jul - 01:42:58 10° NW 01:47:42 78° SW 01:52:24 10° SE visible
22 Jul - 15:50:57 10° SSE 15:53:12 13° SE 15:55:28 10° E daylight
22 Jul - 17:30:01 10° SW 17:34:40 74° NW 17:39:22 10° NE daylight
22 Jul - 19:14:21 10° WNW 19:17:13 16° NNW 19:20:05 10° NNE daylight
22 Jul - 22:43:51 10° N 22:44:51 11° NNE 22:45:51 10° NNE visible
23 Jul - 00:23:29 10° NNW 00:27:53 37° NE 00:32:15 10° ESE visible
23 Jul - 02:05:34 10° WNW 02:09:44 31° SW 02:13:52 10° SSE night (unlit)
23 Jul - 16:10:54 10° SSW 16:15:05 34° SE 16:19:19 10° ENE daylight
23 Jul - 17:52:45 10° W 17:56:59 33° NW 18:01:14 10° NNE daylight
23 Jul - 23:04:35 10° NNW 23:07:41 17° NNE 23:10:47 10° ENE visible
24 Jul - 00:45:25 10° NW 00:50:11 83° NE 00:54:54 10° SE visible
24 Jul - 02:29:46 10° WSW 02:31:36 12° SW 02:33:26 10° SSW night (unlit)
24 Jul - 16:32:30 10° SW 16:37:08 87° SE 16:41:50 10° NE daylight
24 Jul - 18:16:18 10° WNW 18:19:32 18° NNW 18:22:48 10° NNE daylight
24 Jul - 23:26:05 10° NNW 23:30:17 30° NNE 23:34:27 10° E visible
25 Jul - 01:07:50 10° WNW 01:12:16 40° SW 01:16:39 10° SSE visible
25 Jul - 15:13:47 10° S 15:17:37 26° SE 15:21:31 10° ENE daylight
25 Jul - 16:55:01 10° WSW 16:59:23 41° NW 17:03:49 10° NE daylight
25 Jul - 18:40:58 10° NW 18:42:20 11° NNW 18:43:43 10° N daylight
25 Jul - 22:07:19 10° N 22:10:00 15° NNE 22:12:40 10° ENE visible
25 Jul - 23:47:55 10° NW 23:52:38 65° NE 23:57:19 10° ESE visible
26 Jul - 01:31:17 10° W 01:34:10 16° SW 01:37:02 10° SSW night (unlit)
26 Jul - 15:35:03 10° SW 15:39:37 68° SE 15:44:16 10° NE daylight
26 Jul - 17:18:20 10° W 17:21:53 21° NNW 17:25:27 10° NNE daylight
26 Jul - 22:28:42 10° NNW 22:32:39 26° NNE 22:36:35 10° E visible
27 Jul - 00:10:10 10° WNW 00:14:46 52° SW 00:19:20 10° SSE visible
27 Jul - 14:16:47 10° S 14:20:11 20° SE 14:23:36 10° E daylight
27 Jul - 15:57:19 10° WSW 16:01:48 50° NW 16:06:22 10° NE daylight
27 Jul - 17:42:35 10° NW 17:44:37 13° NNW 17:46:38 10° N daylight
27 Jul - 21:10:07 10° N 21:12:17 13° NNE 21:14:26 10° NE visible
27 Jul - 22:50:26 10° NW 22:55:04 52° NE 22:59:41 10° ESE visible
28 Jul - 00:33:12 10° W 00:36:43 21° SW 00:40:13 10° S visible
28 Jul - 14:37:40 10° SSW 14:42:07 52° SE 14:46:38 10° ENE daylight
28 Jul - 16:20:25 10° W 16:24:14 25° NNW 16:28:05 10° NNE daylight
28 Jul - 21:31:20 10° NNW 21:35:00 22° NNE 21:38:39 10° E visible
28 Jul - 23:12:33 10° NW 23:17:15 67° SW 23:21:56 10° SE visible
29 Jul - 13:20:00 10° SSE 13:22:44 16° SE 13:25:30 10° E daylight
29 Jul - 14:59:41 10° WSW 15:04:15 64° NW 15:08:53 10° NE daylight
29 Jul - 16:44:22 10° WNW 16:46:54 14° NNW 16:49:26 10° N daylight
29 Jul - 20:13:02 10° N 20:14:33 11° NNE 20:16:03 10° NE daylight
29 Jul - 21:52:59 10° NW 21:57:28 42° NE 22:01:58 10° ESE visible
29 Jul - 23:35:17 10° WNW 23:39:15 27° SW 23:43:12 10° S visible
